When you browse on this site, cookies collect data to enhance your experience and personalize the content and advertising you see.
Visit our Privacy Policy to learn more. By continuing to use the site, you agree to this use of cookies and data.
  • In Latvia
  • List of Countries
  • For 7 days
  • Water Temperature
  • Weather Map
  • Weather Widgets
  • user-avatar
    Login

    Hourly Weather Hryanykivka

    Today, 1 April, Wednesday

    Time Temperature Precipitation Wind Pressure Humidity
    00:00 -1°C° 0 mm 3 mps 755 mmHg 61%
    01:00 -1°C° 0 mm 3 mps 755 mmHg 62%
    02:00 -2°C° 0 mm 3 mps 755 mmHg 62%
    03:00 -3°C° 0 mm 4 mps 755 mmHg 60%
    04:00 -3°C° 0 mm 4 mps 755 mmHg 60%
    05:00 -4°C° 0 mm 3 mps 755 mmHg 60%
    06:00 -4°C° 0 mm 3 mps 755 mmHg 61%
    07:00 -3°C° 0 mm 4 mps 756 mmHg 54%
    08:00 -2°C° 0 mm 4 mps 756 mmHg 47%
    09:00 -1°C° 0 mm 5 mps 757 mmHg 40%
    10:00 -1°C° 0 mm 5 mps 756 mmHg 36%
    11:00 0°C° 0 mm 5 mps 756 mmHg 33%
    12:00 +1°C° 0 mm 5 mps 755 mmHg 29%
    13:00 +1°C° 0 mm 5 mps 755 mmHg 29%
    14:00 +2°C° 0 mm 5 mps 755 mmHg 29%
    15:00 +2°C° 0 mm 5 mps 755 mmHg 28%
    16:00 +2°C° 0 mm 5 mps 754 mmHg 32%
    17:00 +3°C° 0 mm 4 mps 754 mmHg 35%
    18:00 +3°C° 0 mm 4 mps 753 mmHg 38%
    19:00 +3°C° 0 mm 4 mps 754 mmHg 44%
    20:00 +2°C° 0 mm 3 mps 754 mmHg 49%
    21:00 +1°C° 0 mm 3 mps 755 mmHg 55%
    22:00 +1°C° 0 mm 3 mps 754 mmHg 58%
    23:00 0°C° 0 mm 3 mps 754 mmHg 61%

    Tomorrow, 2 April, Thursday

    Time Temperature Precipitation Wind Pressure Humidity
    00:00 0°C° 0 mm 3 mps 754 mmHg 64%
    01:00 0°C° 0 mm 3 mps 754 mmHg 65%
    02:00 -1°C° 0 mm 3 mps 754 mmHg 67%
    03:00 -1°C° 0 mm 3 mps 754 mmHg 69%
    04:00 -1°C° 0 mm 3 mps 754 mmHg 69%
    05:00 -1°C° 0 mm 3 mps 754 mmHg 69%
    06:00 -1°C° 0 mm 3 mps 753 mmHg 69%
    07:00 -1°C° 0 mm 4 mps 754 mmHg 62%
    08:00 +1°C° 0 mm 4 mps 754 mmHg 56%
    09:00 +3°C° 0 mm 5 mps 754 mmHg 50%
    10:00 +5°C° 0 mm 5 mps 754 mmHg 47%
    11:00 +5°C° 0 mm 6 mps 753 mmHg 44%
    12:00 +7°C° 0 mm 6 mps 753 mmHg 41%
    13:00 +7°C° 0 mm 6 mps 753 mmHg 41%
    14:00 +8°C° 0 mm 6 mps 753 mmHg 40%
    15:00 +8°C° 0 mm 6 mps 753 mmHg 39%
    16:00 +8°C° 0 mm 5 mps 752 mmHg 41%
    17:00 +8°C° 0 mm 5 mps 752 mmHg 43%
    18:00 +7°C° 0 mm 5 mps 752 mmHg 44%
    19:00 +6°C° 0 mm 4 mps 752 mmHg 49%
    20:00 +5°C° 0 mm 4 mps 753 mmHg 53%
    21:00 +4°C° 0 mm 3 mps 753 mmHg 57%
    22:00 +4°C° 0 mm 3 mps 753 mmHg 58%
    23:00 +3°C° 0 mm 3 mps 753 mmHg 59%

    Day after tomorrow, 3 April, Friday

    Time Temperature Precipitation Wind Pressure Humidity
    00:00 +3°C° 0 mm 3 mps 753 mmHg 60%
    01:00 +2°C° 0 mm 3 mps 753 mmHg 61%
    02:00 +2°C° 0 mm 3 mps 753 mmHg 62%
    03:00 +2°C° 0 mm 3 mps 753 mmHg 63%
    04:00 +1°C° 0 mm 3 mps 753 mmHg 65%
    05:00 +1°C° 0 mm 3 mps 753 mmHg 66%
    06:00 +1°C° 0 mm 3 mps 753 mmHg 68%
    07:00 +2°C° 0 mm 3 mps 753 mmHg 62%
    08:00 +4°C° 0 mm 3 mps 754 mmHg 57%
    09:00 +7°C° 0 mm 3 mps 754 mmHg 52%
    10:00 +7°C° 0 mm 4 mps 754 mmHg 47%
    11:00 +10°C° 0 mm 4 mps 753 mmHg 41%
    12:00 +11°C° 0 mm 4 mps 753 mmHg 36%
    13:00 +12°C° 0 mm 4 mps 753 mmHg 35%
    14:00 +12°C° 0 mm 5 mps 753 mmHg 34%
    15:00 +13°C° 0 mm 5 mps 753 mmHg 34%
    16:00 +12°C° 0 mm 4 mps 753 mmHg 36%
    17:00 +12°C° 0 mm 4 mps 753 mmHg 38%
    18:00 +12°C° 0 mm 3 mps 753 mmHg 40%
    19:00 +10°C° 0 mm 3 mps 753 mmHg 43%
    20:00 +9°C° 0 mm 3 mps 753 mmHg 46%
    21:00 +8°C° 0 mm 3 mps 754 mmHg 50%
    22:00 +7°C° 0 mm 3 mps 754 mmHg 51%
    23:00 +7°C° 0 mm 3 mps 754 mmHg 52%

    4 April, Saturday

    Time Temperature Precipitation Wind Pressure Humidity
    00:00 +5°C° 0 mm 3 mps 754 mmHg 54%
    01:00 +6°C° 0 mm 2 mps 754 mmHg 55%
    02:00 +5°C° 0 mm 2 mps 754 mmHg 56%
    03:00 +5°C° 0 mm 2 mps 754 mmHg 58%
    04:00 +5°C° 0 mm 2 mps 755 mmHg 59%
    05:00 +3°C° 0 mm 3 mps 755 mmHg 61%
    06:00 +3°C° 0 mm 3 mps 755 mmHg 62%
    07:00 +5°C° 0 mm 3 mps 755 mmHg 58%
    08:00 +7°C° 0 mm 3 mps 755 mmHg 54%
    09:00 +8°C° 0 mm 4 mps 755 mmHg 50%
    10:00 +10°C° 0 mm 4 mps 755 mmHg 45%
    11:00 +12°C° 0 mm 5 mps 756 mmHg 41%
    12:00 +13°C° 0 mm 5 mps 756 mmHg 36%
    13:00 +13°C° 0 mm 5 mps 756 mmHg 37%
    14:00 +14°C° 0 mm 5 mps 756 mmHg 38%
    15:00 +14°C° 0 mm 5 mps 756 mmHg 39%
    16:00 +13°C° 0 mm 5 mps 756 mmHg 42%
    17:00 +13°C° 0 mm 5 mps 756 mmHg 45%
    18:00 +12°C° 0 mm 4 mps 756 mmHg 48%
    19:00 +11°C° 0 mm 4 mps 757 mmHg 51%
    20:00 +9°C° 0 mm 3 mps 757 mmHg 53%
    21:00 +8°C° 0 mm 3 mps 758 mmHg 56%
    22:00 +7°C° 0 mm 3 mps 758 mmHg 58%
    23:00 +5°C° 0 mm 3 mps 758 mmHg 61%

    5 April, Sunday

    Time Temperature Precipitation Wind Pressure Humidity
    00:00 +5°C° 0 mm 3 mps 759 mmHg 63%
    01:00 +5°C° 0 mm 3 mps 759 mmHg 65%
    02:00 +4°C° 0 mm 3 mps 759 mmHg 66%
    03:00 +4°C° 0 mm 3 mps 759 mmHg 68%
    04:00 +3°C° 0 mm 3 mps 759 mmHg 68%
    05:00 +3°C° 0 mm 3 mps 760 mmHg 68%
    06:00 +2°C° 0 mm 3 mps 760 mmHg 68%
    07:00 +3°C° 0 mm 4 mps 760 mmHg 63%
    08:00 +3°C° 0 mm 5 mps 760 mmHg 58%
    09:00 +5°C° 0 mm 6 mps 761 mmHg 53%
    10:00 +5°C° 0 mm 6 mps 761 mmHg 48%
    11:00 +6°C° 0 mm 7 mps 761 mmHg 43%
    12:00 +7°C° 0 mm 8 mps 761 mmHg 38%
    13:00 +6°C° 0.2 mm 8 mps 761 mmHg 39%
    14:00 +6°C° 0.2 mm 9 mps 761 mmHg 41%
    15:00 +5°C° 0.2 mm 10 mps 762 mmHg 42%
    16:00 +5°C° 0 mm 9 mps 762 mmHg 40%
    17:00 +3°C° 0 mm 9 mps 763 mmHg 38%
    18:00 +3°C° 0 mm 9 mps 763 mmHg 36%
    19:00 +2°C° 0 mm 8 mps 764 mmHg 40%
    20:00 +2°C° 0 mm 7 mps 765 mmHg 43%
    21:00 +1°C° 0 mm 6 mps 765 mmHg 47%
    22:00 -1°C° 0 mm 6 mps 766 mmHg 47%
    23:00 0°C° 0 mm 5 mps 766 mmHg 48%

    6 April, Monday

    Time Temperature Precipitation Wind Pressure Humidity
    00:00 -1°C° 0 mm 5 mps 767 mmHg 49%
    01:00 -1°C° 0 mm 5 mps 767 mmHg 51%
    02:00 -1°C° 0 mm 5 mps 767 mmHg 54%
    03:00 -2°C° 0 mm 5 mps 767 mmHg 57%
    04:00 -2°C° 0 mm 5 mps 768 mmHg 58%
    05:00 -2°C° 0 mm 5 mps 768 mmHg 59%
    06:00 -2°C° 0 mm 5 mps 768 mmHg 60%
    07:00 -2°C° 0 mm 6 mps 769 mmHg 53%
    08:00 -1°C° 0 mm 7 mps 769 mmHg 46%
    09:00 +1°C° 0 mm 8 mps 769 mmHg 39%
    10:00 +1°C° 0 mm 8 mps 769 mmHg 36%
    11:00 +2°C° 0 mm 8 mps 769 mmHg 34%
    12:00 +4°C° 0 mm 8 mps 769 mmHg 31%
    13:00 +4°C° 0 mm 8 mps 769 mmHg 30%
    14:00 +5°C° 0 mm 7 mps 769 mmHg 30%
    15:00 +5°C° 0 mm 7 mps 769 mmHg 29%
    16:00 +5°C° 0 mm 7 mps 769 mmHg 30%
    17:00 +4°C° 0 mm 6 mps 769 mmHg 31%
    18:00 +4°C° 0 mm 6 mps 769 mmHg 33%
    19:00 +3°C° 0 mm 5 mps 769 mmHg 37%
    20:00 +3°C° 0 mm 4 mps 770 mmHg 41%
    21:00 +3°C° 0 mm 2 mps 770 mmHg 46%
    22:00 +2°C° 0 mm 2 mps 770 mmHg 46%
    23:00 +2°C° 0 mm 2 mps 770 mmHg 47%
    Show more